FW9086 Weather Reports


Display with metric or nautical units.
time (UTC)temp
F
wind
direction
speed
MPH
gust
MPH
rain 1hr
in
rain 24hr
in
rain mn
in
humidity
%
barometer
mb
20260504201903 68 233 1.0 1.0 0.00 0.03 0.03 85 1003.2
20260504201400 65 195 0.0 1.0 0.00 0.03 0.03 89 1003.5
20260504200857 63 198 2.0 2.0 0.00 0.03 0.03 91 1003.4
20260504200354 62 192 0.0 0.0 0.00 0.03 0.03 92 1003.0
20260504195851 62 179 0.0 0.0 0.00 0.03 0.03 91 1003.2
20260504195346 62 181 0.0 0.0 0.00 0.03 0.03 91 1003.8
20260504194843 61 195 2.0 2.0 0.12 0.03 0.03 92 1004.0
20260504194339 61 197 1.0 1.0 0.12 0.03 0.03 91 1004.7
20260504193835 61 194 1.0 2.0 0.05 0.01 0.01 87 1004.8
20260504193333 62 257 4.0 5.0 0.05 0.01 0.01 83 1004.7
20260504192831 63 254 5.0 6.0 0.00 0.00 0.00 77 1004.6
20260504192329 64 244 4.0 5.0 0.00 0.00 0.00 74 1004.2
20260504191827 65 253 6.0 7.0 0.00 0.00 0.00 70 1003.9
20260504191324 64 214 1.0 2.0 0.00 0.00 0.00 73 1003.3
20260504190820 63 245 3.0 3.0 0.00 0.00 0.00 74 1003.3
20260504190316 63 240 2.0 2.0 0.00 0.00 0.00 75 1003.3
20260504185813 64 193 1.0 2.0 0.00 0.00 0.00 74 1003.4
20260504185310 63 242 2.0 2.0 0.00 0.00 0.00 72 1003.4
20260504184806 63 237 3.0 3.0 0.00 0.00 0.00 72 1003.5
20260504184302 63 220 4.0 6.0 0.00 0.00 0.00 72 1004.0
20260504183757 63 214 2.0 2.0 0.00 0.00 0.00 75 1003.5
20260504183254 63 233 5.0 5.0 0.00 0.00 0.00 75 1003.9
20260504182753 64 250 10.0 11.0 0.00 0.00 0.00 75 1004.0
20260504182250 65 231 4.0 6.0 0.00 0.00 0.00 72 1003.9
20260504181747 66 256 6.0 7.0 0.00 0.00 0.00 69 1004.5
20260504181244 66 263 5.0 6.0 0.00 0.00 0.00 68 1004.4
20260504180743 66 266 6.0 8.0 0.00 0.00 0.00 67 1004.5
20260504180242 66 250 6.0 8.0 0.00 0.00 0.00 68 1004.5
20260504175739 66 250 4.0 6.0 0.00 0.00 0.00 70 1004.4
20260504175235 66 249 5.0 6.0 0.00 0.00 0.00 67 1004.4
20260504174733 66 233 7.0 9.0 0.00 0.00 0.00 67 1004.2
20260504174231 67 260 6.0 8.0 0.00 0.00 0.00 67 1004.0
20260504173727 68 249 7.0 8.0 0.00 0.00 0.00 66 1004.1
20260504173224 68 243 4.0 6.0 0.00 0.00 0.00 65 1003.9
20260504172721 67 251 5.0 6.0 0.00 0.00 0.00 69 1004.0
20260504172217 67 174 1.0 2.0 0.00 0.00 0.00 69 1003.7
20260504171714 67 243 1.0 2.0 0.00 0.00 0.00 69 1004.1
20260504171211 67 189 3.0 5.0 0.00 0.00 0.00 70 1003.9
20260504170708 67 244 3.0 3.0 0.00 0.00 0.00 68 1003.9
20260504170206 67 200 2.0 3.0 0.00 0.00 0.00 68 1003.3
20260504160124 69 185 4.0 5.0 0.00 0.00 0.00 66 1004.8
20260504151051 67 232 4.0 5.0 0.00 0.00 0.00 65 1005.1
20260504150548 67 241 5.0 6.0 0.00 0.00 0.00 66 1005.0
20260504141014 63 247 0.0 0.0 0.00 0.00 0.00 74 1005.3
20260504140511 63 242 2.0 2.0 0.00 0.00 0.00 76 1005.4
20260504130435 57 168 0.0 1.0 0.00 0.00 0.00 83 1005.3
20260504110322 48 155 0.0 0.0 0.00 0.00 0.00 91 1005.2
20260504100240 47 155 0.0 0.0 0.00 0.00 0.00 93 1005.5
20260504081633 46 156 0.0 0.0 0.00 0.00 0.00 90 1006.3
20260504081129 47 151 0.0 0.0 0.00 0.00 0.00 90 1006.6
20260504080626 47 155 0.0 0.0 0.00 0.00 0.00 90 1006.5
20260504080122 47 157 0.0 0.0 0.00 0.00 0.00 89 1006.4
20260504050439 50 152 0.0 0.0 0.00 0.00 0.00 80 1007.9
20260504045936 50 154 0.0 0.0 0.00 0.00 0.00 79 1007.6
20260504045432 50 153 0.0 0.0 0.00 0.00 0.00 78 1007.8
20260504044928 51 147 0.0 0.0 0.00 0.00 0.00 78 1007.8
20260504044426 51 154 0.0 0.0 0.00 0.00 0.00 78 1007.8
20260504043923 51 153 0.0 0.0 0.00 0.00 0.00 78 1007.9
20260504043420 51 153 0.0 0.0 0.00 0.00 0.00 77 1007.9
20260504042917 51 147 0.0 0.0 0.00 0.00 0.00 77 1008.2
20260504042414 51 158 0.0 0.0 0.00 0.00 0.00 75 1008.1
20260504041910 52 153 0.0 0.0 0.00 0.00 0.00 75 1008.1
20260504041406 52 158 0.0 0.0 0.00 0.00 0.00 75 1008.0
20260504040902 52 152 0.0 0.0 0.00 0.00 0.00 74 1008.0
20260504040400 52 149 0.0 0.0 0.00 0.00 0.00 74 1008.0
20260504035856 53 158 0.0 0.0 0.00 0.00 0.00 74 1008.1
20260504035354 53 153 0.0 0.0 0.00 0.00 0.00 73 1008.1
20260504034850 53 151 0.0 0.0 0.00 0.00 0.00 73 1008.1
20260504034348 54 155 0.0 0.0 0.00 0.00 0.00 73 1008.6
20260504033844 54 158 0.0 0.0 0.00 0.00 0.00 73 1008.6
20260504033343 54 169 0.0 0.0 0.00 0.00 0.00 73 1008.3
20260504032839 54 169 0.0 0.0 0.00 0.00 0.00 71 1008.4
20260504032336 54 160 0.0 0.0 0.00 0.00 0.00 74 1008.4
20260504031833 54 152 0.0 0.0 0.00 0.00 0.00 73 1008.6
20260504031330 53 154 0.0 0.0 0.00 0.00 0.00 73 1008.4
20260504030826 53 155 0.0 0.0 0.00 0.00 0.00 74 1008.7
20260504030324 53 155 0.0 0.0 0.00 0.00 0.00 74 1008.6
20260504025820 53 151 0.0 0.0 0.00 0.00 0.00 73 1008.7
20260504025317 53 151 0.0 0.0 0.00 0.00 0.00 72 1008.8
20260504024813 54 155 0.0 0.0 0.00 0.00 0.00 73 1008.6
20260504024310 54 156 0.0 0.0 0.00 0.00 0.00 72 1008.8
20260504023807 54 168 0.0 0.0 0.00 0.00 0.00 72 1008.4
20260504023303 54 160 0.0 0.0 0.00 0.00 0.00 72 1008.7
20260504022759 54 156 0.0 0.0 0.00 0.00 0.00 71 1008.6
20260504022256 55 165 0.0 0.0 0.00 0.00 0.00 71 1008.8
20260504021752 55 156 0.0 0.0 0.00 0.00 0.00 69 1008.6
20260504021250 55 171 0.0 0.0 0.00 0.00 0.00 70 1008.6
20260504020747 56 164 0.0 0.0 0.00 0.00 0.00 67 1008.6
20260504020243 56 179 0.0 0.0 0.00 0.00 0.00 65 1008.7
20260504015739 55 162 0.0 0.0 0.00 0.00 0.00 67 1008.7
20260504015236 55 173 0.0 0.0 0.00 0.00 0.00 69 1008.3
20260504014732 55 166 0.0 0.0 0.00 0.00 0.00 70 1008.8
20260504014228 55 156 0.0 0.0 0.00 0.00 0.00 70 1008.6
20260504013726 55 144 0.0 0.0 0.00 0.00 0.00 68 1008.6
20260504013224 56 167 0.0 0.0 0.00 0.00 0.00 68 1008.4
20260504012720 56 163 0.0 0.0 0.00 0.00 0.00 66 1008.3
20260504012218 56 163 0.0 0.0 0.00 0.00 0.00 66 1008.6
20260504011715 57 185 0.0 0.0 0.00 0.00 0.00 65 1008.4
20260504011212 57 228 0.0 0.0 0.00 0.00 0.00 63 1008.7
20260504010708 57 187 0.0 0.0 0.00 0.00 0.00 63 1008.6
20260504010203 57 190 0.0 0.0 0.00 0.00 0.00 64 1008.4
20260504005700 57 176 0.0 0.0 0.00 0.00 0.00 63 1008.4
20260504005157 57 173 0.0 0.0 0.00 0.00 0.00 64 1008.7
20260504004655 58 173 0.0 1.0 0.00 0.00 0.00 62 1008.8
20260504004152 58 182 1.0 1.0 0.00 0.00 0.00 62 1008.6
20260504003648 58 199 0.0 0.0 0.00 0.00 0.00 61 1008.4
20260504003145 59 239 2.0 2.0 0.00 0.00 0.00 62 1008.7
20260504002642 58 190 2.0 2.0 0.00 0.00 0.00 61 1008.8
20260504002139 59 227 2.0 3.0 0.00 0.00 0.00 62 1008.7
20260504001637 58 185 0.0 0.0 0.00 0.00 0.00 61 1008.3
20260504001132 58 199 0.0 0.0 0.00 0.00 0.00 63 1008.6
20260504000630 59 178 1.0 1.0 0.00 0.00 0.00 61 1008.7
20260504000127 58 247 3.0 3.0 0.00 0.00 0.00 62 1008.7
20260503235625 58 232 3.0 3.0 0.00 0.00 0.00 60 1008.6
20260503235122 59 162 0.0 0.0 0.00 0.00 0.00 61 1008.8
20260503234620 59 218 0.0 0.0 0.00 0.00 0.00 59 1008.8
20260503234118 59 192 0.0 0.0 0.00 0.00 0.00 62 1008.9
20260503233615 59 0 3.0 3.0 0.00 0.00 0.00 59 1008.9
20260503233110 59 211 0.0 0.0 0.00 0.00 0.00 62 1008.9
20260503232607 59 163 2.0 3.0 0.00 0.00 0.00 58 1009.2
20260503232105 59 218 3.0 3.0 0.00 0.00 0.00 59 1009.0
20260503231603 59 176 0.0 0.0 0.00 0.00 0.00 61 1009.2
20260503231059 59 272 0.0 0.0 0.00 0.00 0.00 59 1008.9
20260503230555 59 158 3.0 5.0 0.00 0.00 0.00 58 1009.2
20260503230053 59 229 3.0 5.0 0.00 0.00 0.00 57 1009.3
20260503225550 59 176 0.0 0.0 0.00 0.00 0.00 57 1009.3
20260503225045 59 239 0.0 0.0 0.00 0.00 0.00 58 1009.3
20260503224543 59 203 1.0 1.0 0.00 0.00 0.00 61 1009.3
20260503224040 59 179 0.0 0.0 0.00 0.00 0.00 59 1009.0
20260503223538 59 287 3.0 5.0 0.00 0.00 0.00 57 1009.2
20260503223033 59 169 0.0 1.0 0.00 0.00 0.00 56 1009.2
20260503222532 59 244 5.0 7.0 0.00 0.00 0.00 55 1009.3
20260503222030 60 213 2.0 2.0 0.00 0.00 0.00 58 1009.3
20260503221528 60 242 2.0 2.0 0.00 0.00 0.00 56 1009.2
20260503221025 60 209 2.0 2.0 0.00 0.00 0.00 56 1008.9
20260503220521 60 249 5.0 6.0 0.00 0.00 0.00 54 1009.1
20260503220017 60 243 3.0 3.0 0.00 0.00 0.00 54 1009.1
20260503215515 60 235 4.0 6.0 0.00 0.00 0.00 52 1009.3
20260503215012 60 239 5.0 6.0 0.00 0.00 0.00 54 1009.3
20260503214510 61 286 3.0 5.0 0.00 0.00 0.00 53 1009.5
20260503214006 61 249 3.0 3.0 0.00 0.00 0.00 52 1009.6
20260503213505 61 262 4.0 5.0 0.00 0.00 0.00 51 1009.7
20260503213001 62 250 6.0 7.0 0.00 0.00 0.00 52 1009.6
20260503212459 62 245 3.0 3.0 0.00 0.00 0.00 50 1009.3
20260503211956 62 258 5.0 7.0 0.00 0.00 0.00 53 1009.7
20260503211453 63 249 3.0 6.0 0.00 0.00 0.00 53 1009.7
20260503210948 63 228 2.0 3.0 0.00 0.00 0.00 54 1009.9
20260503210445 61 259 3.0 5.0 0.00 0.00 0.00 58 1010.2
20260503205940 60 225 3.0 3.0 0.00 0.00 0.00 55 1010.2
20260503205437 60 251 0.0 0.0 0.00 0.00 0.00 53 1010.3
20260503204933 60 270 3.0 3.0 0.00 0.00 0.00 51 1010.7
20260503204430 60 251 5.0 6.0 0.00 0.00 0.00 53 1010.4
20260503203927 61 269 2.0 6.0 0.00 0.00 0.00 53 1010.6
20260503203425 62 269 5.0 6.0 0.00 0.00 0.00 55 1010.6
20260503202921 63 251 4.0 5.0 0.00 0.00 0.00 51 1010.8
20260503202420 62 208 2.0 2.0 0.00 0.00 0.00 53 1011.0